Regional Weather Roundup
Issued by NWS

Home | Current Version | Previous Version | Text Only | Print | Product List | Glossary On
Versions: 1 2 3 4 5 6 7 8 9 10 11 12 13 14 15 16 17 18 19 20 21 22 23 24 25 26 27 28 29 30 31 32 33 34 35 36 37 38 39 40 41 42 43 44 45 46 47 48
000
ASUS43 KMPX 130710
RWRMN
WEATHER ROUNDUP FOR MINNESOTA
NATIONAL WEATHER SERVICE TWIN CITIES/CHANHASSEN MN
200 AM CDT THU AUG 13 2020


NOTE: "FAIR" INDICATES FEW OR NO CLOUDS BELOW 12,000 FEET WITH NO
SIGNIFICANT WEATHER AND/OR OBSTRUCTIONS TO VISIBILITY. N/A MEANS
CURRENT SKY AND/OR WEATHER CONDITIONS ARE NOT AVAILABLE.

MNZ060>063-068>070-130800-
   Twin Cities Metro

CITY           SKY/WX    TMP DP  RH WIND       PRES   REMARKS
TWIN CITIES    MOCLDY    68  64  87 SE6       30.01S
ST PAUL        PTCLDY    68  63  84 SE6       30.02R
CRYSTAL        PTCLDY    67  63  87 CALM      30.00S
BLAINE         PTCLDY    66  64  94 CALM      30.01F
LAKEVILLE      MOCLDY    72  61  68 CALM      30.03R
EDEN PRAIRIE   MOCLDY    70  65  84 S7        30.00R
SOUTH ST PAUL  CLEAR     67  64  91 CALM      30.02S
LAKE ELMO      CLOUDY    63  63 100 E5        30.04S
$$
MNZ001>005-007-008-013>017-022>024-027-028-130800-
   Northwest Minnesota

CITY           SKY/WX    TMP DP  RH WIND       PRES   REMARKS
BEMIDJI        CLOUDY    62  59  90 SE7       30.02F
HALLOCK        MOCLDY    66  64  94 SE12G17   29.93F
ROSEAU         CLEAR     64 N/A N/A SE9       29.98F
WARROAD        PTCLDY    63  59  88 SE8       30.00F
CROOKSTON      PTCLDY    64  63  94 SE10      29.93F
FOSSTON        CLEAR     63  57  82 SE8G17    29.98F
DETROIT LAKES    N/A     64  59  82 SE13      29.99F
MOORHEAD       CLOUDY    72  61  68 SE12      29.92F
PARK RAPIDS    CLOUDY    64  58  80 SE7       30.01S
MAHNOMEN       PTSUNNY   64  61  89 SE12      29.96F
$$
MNZ006-009>011-018-025>026-130800-
   North Central Minnesota

CITY           SKY/WX    TMP DP  RH WIND       PRES   REMARKS
BAUDETTE         N/A     61  59  93 SE8       30.03F
FLAG ISLAND      N/A    N/A N/A N/A S12G18    30.00F
INTL FALLS     CLEAR     58  55  90 SE3       30.07R
WASKISH          N/A     59  55  88 E5        30.03F
BIG FORK       CLEAR     57  54  88 CALM      30.11F
GRAND RAPIDS   PTCLDY    57  56  96 S5        30.08S
CRANE LAKE     CLEAR     54  54 100 CALM      30.11S
ORR            CLEAR     57  54  88 SE3       30.07S
COOK           CLEAR     55  54  94 CALM      30.09S
WALKER         CLOUDY    62  59  91 SE5       30.03F
$$
MNZ012-019>021-037-130800-
   Northeast Minnesota

CITY           SKY/WX    TMP DP  RH WIND       PRES   REMARKS
DULUTH         CLOUDY    63  59  87 SE12      30.10S
ELY            CLEAR     57  52  82 CALM      30.11S
HIBBING        CLEAR     54  52  93 SE3       30.09R
EVELETH        MOCLDY    55  53  95 CALM      30.11S
DULUTH HARBOR  CLOUDY    64  57  77 E3        30.10S
TWO HARBORS    PTCLDY    61  52  72 NE3       30.11R
SILVER BAY       N/A     57  55  94 CALM      30.12R
GRAND MARAIS     N/A     60  56  86 N3        30.10R
G MARAIS ARPRT PTCLDY    61  52  72 W3        30.14S
$$
MNZ029>031-032-039>041-046>048-054>057-064-130800-
   West Central Minnesota

CITY           SKY/WX    TMP DP  RH WIND       PRES   REMARKS
FERGUS FALLS   CLEAR     66  63  88 SE10      29.95S
WHEATON        CLEAR     66  63  88 SE9       29.92F
MORRIS         CLEAR     66  66 100 SE10      29.95S
ALEXANDRIA     CLOUDY    63  61  93 SE10      30.00S
ELBOW LAKE     FAIR      64  64  97 SE14      29.95F
WADENA         LGT RAIN  63  63 100 SE9       30.00S
GLENWOOD         N/A     63  63 100 E9        29.99S
APPLETON       CLEAR     66  63  88 E12       29.92F
BENSON         PTCLDY    66  64  94 SE6       29.96S
ORTONVILLE     CLEAR     64  64 100 SE12      29.91F
MADISON        CLEAR     70  68  94 E8        29.92F
WILLMAR        FAIR      70  66  88 SE9       30.00S
$$
MNZ033>034-036-042>043-049>051-058-059-130800-
   Central Minnesota

CITY           SKY/WX    TMP DP  RH WIND       PRES   REMARKS
ST CLOUD       CLOUDY    62  59  90 E5        30.01S
SAUK CENTRE    CLOUDY    63  62  97 E7        30.00S
PAYNESVILLE    MOCLDY    65  64  96 E6        30.00S
PINE RIVER     CLOUDY    59  55  88 E6        30.06S
BRAINERD       CLOUDY    67  61  81 VRB3      30.03S
STAPLES        CLOUDY    63  57  82 SE5       30.01S
LONG PRAIRIE   CLOUDY    61  61 100 E6        30.01F
LITTLE FALLS   CLOUDY    61  61 100 CALM      30.01F
CAMP RIPLEY    LGT RAIN  63  60  90 E6        30.02F
LITCHFIELD     MOCLDY    70  70 100 SE6       30.00S
BUFFALO        CLOUDY    66  62  88 MISG      30.01F
MAPLE LAKE       N/A     67  65  94 E3        30.02S
HUTCHINSON     MOCLDY    68  67  96 SE6       30.01S
$$
MNZ037-044-045-052-053-130800-
   East Central Minnesota

CITY           SKY/WX    TMP DP  RH WIND       PRES   REMARKS
PRINCETON      CLOUDY    63  61  94 SE3       30.03S
MORA           CLOUDY    61  59  94 CALM      30.06S
CAMBRIDGE      CLOUDY    64  55  72 E3        30.03S
RUSH CITY      CLOUDY    61  58  92 NE5       30.04F
MOOSE LAKE     CLOUDY    63  59  88 E3        30.05S
HINCKLEY       CLOUDY    63  63 100 E8        30.06S
CLOQUET        CLOUDY    61  57  88 E7        30.08F
MCGREGOR       CLOUDY    63  59  88 E5        30.06S
$$
MNZ071>073-080-081-089-090-097-098-130800-
   Southwest Minnesota

CITY           SKY/WX    TMP DP  RH WIND       PRES   REMARKS
MONTEVIDEO     PTCLDY    64  63  94 S9        29.95F
GRANITE FALLS  PTCLDY    69  67  96 E5        29.97S
CANBY          CLEAR     70  68  93 E5        29.93F
MARSHALL         N/A    N/A N/A N/A MISG        N/A
REDWOOD FALLS  PTCLDY    71  69  93 SE7       29.97R
OLIVIA         PTCLDY    66  64  94 SE7       29.97S
PIPESTONE        N/A     72  70  94 SW12      29.96F
WINDOM         PTCLDY    70  70 100 SE3       29.98S
WORTHINGTON    MOCLDY    71  70  96 S12       29.99S
JACKSON        PTCLDY    70  68  94 S5        30.00R
SLAYTON        MOCLDY    71  64  78 S6        29.99S
$$
MNZ065>067-074>077-082>085-091>093-130800-
   South Central Minnesota

CITY           SKY/WX    TMP DP  RH WIND       PRES   REMARKS
MANKATO        CLOUDY    70  70 100 SE10      30.01R
NEW ULM        CLEAR     70  68  94 SE8       29.99S
ST JAMES         N/A     70  68  94 E5        29.99R
FAIRMONT       MOCLDY    72  72 100 S9        30.00R
GLENCOE        PTCLDY    67  65  94 E7        30.00S
FARIBAULT      PTCLDY    72  66  83 SE9       30.03S
OWATONNA       PTCLDY    72  64  78 SE12      30.03S
ALBERT LEA     PTCLDY    70  66  88 SE8       30.04R
$$
MNZ078>079-086>088-094>096-130800-
   Southeast Minnesota

CITY           SKY/WX    TMP DP  RH WIND       PRES   REMARKS
ROCHESTER      CLOUDY    67  63  87 SE9       30.07F
RED WING       MOCLDY    73  63  68 E6        30.02S
STANTON        CLEAR     71  64  77 S12       30.01S
DODGE CENTER   PTCLDY    66  61  82 SE8       30.06S
WINONA         CLOUDY    68  64  88 CALM      30.07R
PRESTON        CLOUDY    68  61  77 S8        30.08F
$$
ABBREVIATIONS USED IN REMARKS
   TC - TEMPERATURES IN CELSIUS
  WCI - WIND CHILL INDEX
   HX - HEAT INDEX
  VSB - VISIBILITY
$$




USA.gov is the U.S. government's official web portal to all federal, state and local government web resources and services.